Weather History for KBPC - May, 2013

Change the Weather History Date:

Sunday, May 12, 2013

  Actual Average (KBGD) Record (KBGD)
Temperature  
Mean Temperature 65 °F 67 °F  
Max Temperature 84 °F 80 °F 98 °F (1962)
Min Temperature 46 °F 54 °F 35 °F (1953)
Degree Days  
Heating Degree Days 0 2  
Month to date heating degree days 39  
Since 1 July heating degree days 3742  
Cooling Degree Days 0 4  
Month to date cooling degree days 39  
Year to date cooling degree days 83  
Growing Degree Days 15 (Base 50)    
Moisture  
Dew Point 40 °F    
Average Humidity 46    
Maximum Humidity 87    
Minimum Humidity 16    
Precipitation  
Precipitation 0.00 in 0.09 in 0.26 in (1989)
Month to date precipitation 0.71  
Year to date precipitation 4.87  
Snow  
Snow 0.00 in - T in (1982)
Month to date snowfall  
Since 1 July snowfall  
Snow Depth -    
Sea Level Pressure  
Sea Level Pressure 30.18 in    
Wind  
Wind Speed 8 mph (SW)    
Max Wind Speed 23 mph    
Max Gust Speed 30 mph    
Visibility 10 miles    
Events      
T = Trace of Precipitation, MM = Missing Value Source: NWS Daily Summary

Daily Weather History Graph

Daily Weather History Graph

Search for Another Location

Airport or City:

Trip Planner

Search our weather history database for the weather conditions in past years. The results will help you decide how hot, cold, wet, or windy it might be!

Date:

Astronomy

May. 12, 2013 Rise Set
Actual Time 6:40 AM CDT 8:40 PM CDT
Civil Twilight 6:12 AM CDT 9:08 PM CDT
Nautical Twilight 5:38 AM CDT 9:43 PM CDT
Astronomical Twilight 5:01 AM CDT 10:20 PM CDT
Moon 8:38 AM CDT (5/12) 11:08 PM CDT (5/12)
Length of Visible Light 14h 56m
Length of Day
13h 59m
Waxing Crescent, 7% of the Moon is Illuminated
May 12
Waxing Crescent
May 17
First Quarter
May 24
Full
May 31
Last Quarter
Jun 8
New

Hourly Weather History & Observations

Time (CDT) Temp. Windchill Dew Point Humidity Pressure Visibility Wind Dir Wind Speed Gust Speed Precip Events Conditions
12:15 AM 53.6 °F - 42.8 °F 67% 30.30 in 10.0 mi SE 5.8 mph - N/A   Clear
12:35 AM 51.8 °F - 42.8 °F 71% 30.30 in 10.0 mi SSE 5.8 mph - N/A   Clear
12:55 AM 51.8 °F - 42.8 °F 71% 30.30 in 10.0 mi SSE 8.1 mph - N/A   Clear
1:15 AM 51.8 °F - 42.8 °F 71% 30.30 in 10.0 mi SSE 3.5 mph - N/A   Clear
1:35 AM 51.8 °F - 42.8 °F 71% 30.31 in 10.0 mi Calm Calm - N/A   Clear
1:55 AM 53.6 °F - 42.8 °F 67% 30.31 in 10.0 mi Calm Calm - N/A   Clear
2:15 AM 51.8 °F - 42.8 °F 71% 30.30 in 10.0 mi Calm Calm - N/A   Clear
2:35 AM 51.8 °F - 42.8 °F 71% 30.30 in 10.0 mi Calm Calm - N/A   Clear
2:55 AM 50.0 °F - 42.8 °F 76% 30.30 in 10.0 mi Calm Calm - N/A   Clear
3:15 AM 51.8 °F - 42.8 °F 71% 30.30 in 10.0 mi Calm Calm - N/A   Clear
3:55 AM 48.2 °F - 42.8 °F 82% 30.28 in 10.0 mi SSW 4.6 mph - N/A   Clear
4:15 AM 50.0 °F - 42.8 °F 76% 30.27 in 10.0 mi West 3.5 mph - N/A   Clear
4:35 AM 50.0 °F - 41.0 °F 71% 30.27 in 10.0 mi WSW 4.6 mph - N/A   Clear
4:55 AM 50.0 °F - 42.8 °F 76% 30.27 in 10.0 mi West 5.8 mph - N/A   Clear
5:15 AM 48.2 °F - 42.8 °F 82% 30.26 in 10.0 mi WSW 3.5 mph - N/A   Scattered Clouds
5:35 AM 48.2 °F - 42.8 °F 82% 30.26 in 10.0 mi West 6.9 mph - N/A   Scattered Clouds
5:55 AM 46.4 °F 44.3 °F 42.8 °F 87% 30.26 in 10.0 mi WSW 4.6 mph - N/A   Clear
6:15 AM 46.4 °F 44.3 °F 42.8 °F 87% 30.26 in 10.0 mi WSW 4.6 mph - N/A   Clear
6:35 AM 46.4 °F - 42.8 °F 87% 30.26 in 10.0 mi Calm Calm - N/A   Clear
6:55 AM 46.4 °F - 42.8 °F 87% 30.27 in 10.0 mi Calm Calm - N/A   Clear
7:15 AM 48.2 °F - 42.8 °F 82% 30.27 in 10.0 mi Calm Calm - N/A   Clear
7:35 AM 48.2 °F - 42.8 °F 82% 30.28 in 10.0 mi Calm Calm - N/A   Clear
7:55 AM 51.8 °F - 44.6 °F 76% 30.28 in 10.0 mi Calm Calm - N/A   Clear
8:15 AM 51.8 °F - 42.8 °F 71% 30.28 in 10.0 mi SSW 5.8 mph - N/A   Clear
8:35 AM 53.6 °F - 41.0 °F 62% 30.27 in 10.0 mi SW 4.6 mph - N/A   Clear
8:55 AM 55.4 °F - 41.0 °F 58% 30.27 in 10.0 mi SW 6.9 mph - N/A   Clear
9:15 AM 59.0 °F - 41.0 °F 51% 30.27 in 10.0 mi SW 10.4 mph - N/A   Clear
9:35 AM 60.8 °F - 39.2 °F 45% 30.26 in 10.0 mi SW 13.8 mph - N/A   Clear
9:55 AM 64.4 °F - 35.6 °F 34% 30.26 in 10.0 mi SW 13.8 mph 17.3 mph N/A   Clear
10:15 AM 64.4 °F - 37.4 °F 37% 30.25 in 10.0 mi SW 19.6 mph 26.5 mph N/A   Clear
10:35 AM 68.0 °F - 39.2 °F 35% 30.24 in 10.0 mi SW 19.6 mph 24.2 mph N/A   Clear
10:55 AM 68.0 °F - 41.0 °F 37% 30.23 in 10.0 mi SW 19.6 mph 25.3 mph N/A   Clear
11:15 AM 69.8 °F - 42.8 °F 38% 30.23 in 10.0 mi SW 20.7 mph 26.5 mph N/A   Clear
11:35 AM 71.6 °F - 42.8 °F 35% 30.22 in 10.0 mi SW 20.7 mph 28.8 mph N/A   Clear
11:55 AM 73.4 °F - 42.8 °F 33% 30.20 in 10.0 mi SW 19.6 mph 28.8 mph N/A   Clear
12:15 PM 75.2 °F - 42.8 °F 31% 30.19 in 10.0 mi SW 23.0 mph 27.6 mph N/A   Clear
12:35 PM 77.0 °F - 42.8 °F 29% 30.19 in 10.0 mi SW 21.9 mph 28.8 mph N/A   Clear
12:55 PM 77.0 °F - 41.0 °F 28% 30.18 in 10.0 mi WSW 21.9 mph 25.3 mph N/A   Clear
1:15 PM 78.8 °F - 42.8 °F 28% 30.16 in 10.0 mi SW 15.0 mph 23.0 mph N/A   Clear
1:35 PM 78.8 °F - 41.0 °F 26% 30.16 in 10.0 mi WSW 11.5 mph 19.6 mph N/A   Clear
1:55 PM 80.6 °F - 39.2 °F 23% 30.14 in 10.0 mi SW 9.2 mph 21.9 mph N/A   Clear
2:15 PM 80.6 °F - 37.4 °F 21% 30.14 in 10.0 mi SW 15.0 mph 20.7 mph N/A   Clear
2:55 PM 82.4 °F - 37.4 °F 20% 30.12 in 10.0 mi SW 8.1 mph 18.4 mph N/A   Scattered Clouds
3:15 PM 82.4 °F - 37.4 °F 20% 30.11 in 10.0 mi SW 20.7 mph 26.5 mph N/A   Clear
3:35 PM 84.2 °F - 35.6 °F 18% 30.10 in 10.0 mi SSW 19.6 mph 29.9 mph N/A   Clear
3:55 PM 84.2 °F - 35.6 °F 18% 30.09 in 10.0 mi WSW 17.3 mph 25.3 mph N/A   Scattered Clouds
4:15 PM 82.4 °F - 33.8 °F 17% 30.08 in 10.0 mi SSW 17.3 mph 23.0 mph N/A   Scattered Clouds
4:35 PM 82.4 °F - 35.6 °F 19% 30.06 in 10.0 mi SSW 15.0 mph 21.9 mph N/A   Scattered Clouds
4:55 PM 82.4 °F - 32.0 °F 16% 30.06 in 10.0 mi SW 12.7 mph 18.4 mph N/A   Scattered Clouds
5:35 PM 82.4 °F - 32.0 °F 16% 30.06 in 10.0 mi WNW 13.8 mph 18.4 mph N/A   Scattered Clouds
5:55 PM 82.4 °F - 32.0 °F 16% 30.06 in 10.0 mi West 13.8 mph 28.8 mph N/A   Scattered Clouds
6:15 PM 80.6 °F - 32.0 °F 17% 30.05 in 10.0 mi SSW 12.7 mph 26.5 mph N/A   Scattered Clouds
6:35 PM 82.4 °F - 32.0 °F 16% 30.05 in 10.0 mi SW 4.6 mph - N/A   Clear
6:55 PM 80.6 °F - 32.0 °F 17% 30.04 in 10.0 mi SSW 8.1 mph - N/A   Clear
7:15 PM 82.4 °F - 32.0 °F 16% 30.04 in 10.0 mi SW 5.8 mph - N/A   Clear
7:35 PM 82.4 °F - 32.0 °F 16% 30.03 in 10.0 mi SW 9.2 mph - N/A   Clear
7:55 PM 80.6 °F - 32.0 °F 17% 30.03 in 10.0 mi SW 6.9 mph - N/A   Clear
8:15 PM 78.8 °F - 37.4 °F 23% 30.03 in 10.0 mi SSW 5.8 mph - N/A   Clear
8:35 PM 73.4 °F - 39.2 °F 29% 30.04 in 10.0 mi South 6.9 mph - N/A   Clear
9:15 PM 69.8 °F - 41.0 °F 35% 30.04 in 10.0 mi SSW 9.2 mph - N/A   Clear
9:35 PM 68.0 °F - 41.0 °F 37% 30.05 in 10.0 mi SSW 9.2 mph - N/A   Clear
9:55 PM 68.0 °F - 39.2 °F 35% 30.05 in 10.0 mi SSW 11.5 mph - N/A   Clear
10:15 PM 68.0 °F - 37.4 °F 33% 30.06 in 10.0 mi SSW 10.4 mph - N/A   Clear
10:35 PM 68.0 °F - 39.2 °F 35% 30.07 in 10.0 mi SSW 12.7 mph - N/A   Clear
10:55 PM 68.0 °F - 39.2 °F 35% 30.08 in 10.0 mi SW 11.5 mph - N/A   Clear
11:15 PM 66.2 °F - 39.2 °F 37% 30.09 in 10.0 mi SW 10.4 mph - N/A   Clear
11:35 PM 64.4 °F - 37.4 °F 37% 30.09 in 10.0 mi SSW 12.7 mph - N/A   Clear
11:55 PM 64.4 °F - 41.0 °F 42% 30.09 in 10.0 mi SSW 11.5 mph - N/A   Clear